Погода в Акбайтале

Погода в Акбайтале : погода сейчас, прогноз погоды и архив. Всё, что Вы хотите узнать о погоде в Акбайтале!

Хотите узнать прогноз погоды в Акбайтале? Тогда Вам сюда: Погода в Акбайтале

Поиск расширенной информации на нашем сайте:

Полезная информация: купим бульдозер коматсу д-355а

Другие новости

Новости СМИ2

Главная страница сайта

Новости сайта

02.10.2013

Напоминаем, что на нашем новом сайте вы можете получить высокодетализированные прогнозы погоды по пунктам России, СНГ и мира (включающие важные для авиации метеовеличины, такие как направление и скорость ветра, видимость, явления погоды, количество и форма облачности, нижняя и верхняя граница облачности), а также ознакомиться с разнообразными материалами по авиационной метеорологии и подборкой полезных ссылок на эту тему.

Сайт Метеоцентр.Азия посвящён разработке технологий оптимизации авиаметеорологического обслуживания, включая проектирование и перспективное создание нескольких автоматизированных авиаметеорологических систем:
- система выпуска высокодетальных прогностических карт явлений погоды для нижнего воздушного пространства по России и ближнему зарубежью;
- система верификации прогнозов TAF (выпускаемых синоптиками официальных АМСГ РФ и ближнего зарубежья) и AUTOTAF (выпускаемых сайтом Метеоцентр.Азия) - выявление ошибок, онлайн-сопоставление с фактической погодой METAR, автоматическое внесение коррективов в прогнозы при резком отклонении фактической погоды от прогноза, подсчёт оправдываемости прогнозов по элементам и в целом;
- система обработки, анализа и отображения авиаметеорологической информации для применения провайдерами метеорологической информации.

Рекомендуем: Обслуживанию и ремонту аппаратов высокого давления.

Погода в Акбайтале - сегодня

Время (UTC), дата Ветер
(°,м/с) 
Видим.   Явления Облачность Т
(°С)
Тd
(°С)
f(%) Тe
(°С)
Pmin
(гПа)
dP
(гПа)
Po
(мм)
O2
(г/м3)
Тmin Tmax R s Состояние
почвы
06 25.05.17 020 (С) 20000 м    9/8 600 м 
[Sc]
+26.8 +9.5 34 +28  1012.2  -0.2  739  270  +18.3         
09 25.05.17 050 (СВ) 20000 м    5/0 средняя 
[Ac cast]
+31.6 +11.4 29 +35  1011.6  -0.2  739  265           
12 25.05.17 280 (З) 20000 м    3/0 средняя 
[Ac cast]
+33 +12.2 28 +38  1010.8  -0.6  739  263           
15 25.05.17 020 (С) 20000 м    ясно 
+30 +10.4 30 +32  1011  -0.1  739  266    +33       
18 25.05.17 тихо ()   н/о    ясно 
+25 +7.7 33 +25  1012  0.6  739  272    +33       
21 25.05.17 090 (В) н/о    4/0 средняя 
[Ac As]
+20.6 +5.8 38 +21  1012.9  739  276           
00 26.05.17 090 (В) 20000 м    8/4 1000 м средняя 
[Sc|Ac As]
+19.2 +5.8 41 +20  1012.7  0.2  739  277           
06 26.05.17 030 (СВ) 20000 м    8/8 1000 м кучево-дожд. 
[Cb calv]
+26.2 +10 36 +28  1013.5  -0.4  740  270  +19.7         
09 26.05.17 070 (В) 20000 м    4/0 
[Cu med, cong]
+32.8 +13 30 +39  1011.6  -1.3  739  264           
12 26.05.17 180 (Ю) 20000 м    8/0 кучево-дожд. 
[Cb calv]
+35 +13.4 27 +41  1009.7  -1.6  738  261           
21 26.05.17 180 (Ю) н/о    ясно 
+19 +7 46 +20  1009.2  -0.7  737  276           
00 27.05.17 250 (З) 20000 м    ясно 
+17.3 +6.1 48 +18  1009.8  0.4  737  278           
06 27.05.17 340 (С) 20000 м    ясно 
+28.2 +12.3 37 +33  1010.1  1.4  738  267  +17.3         
09 27.05.17 050 (СВ) 20000 м    ясно 
+31.8 +12.5 31 +37  1019.7  -0.1  738  264           
12 27.05.17 360 (С) 20000 м    ясно 
+32.7 +11.7 28 +37  1008.9  -0.8  737  263           
15 27.05.17 030 (СВ) 20000 м    ясно 
+30 +10.6 30 +32  1009.6  0.5  738  266    +32.2       
18 27.05.17 340 (С) н/о    ясно 
+23.8 +6.5 33 +24  1010.1  738  272    +32.2       
21 27.05.17 360 (С) н/о    ясно 
+22.1 +6.7 37 +22  1010.6  0.3  738  274           
00 28.05.17 030 (СВ) 20000 м    ясно 
+19.4 +6.7 44 +20  1011  0.1  738  277           
06 28.05.17 090 (В) 20000 м    3/0 верхняя 
[Ci fib]
+27 +9.8 34 +28  1010.9  -1  738  269  +19.4         
09 28.05.17 160 (Ю) 20000 м    4/0 верхняя 
[Ci fib]
+32.5 +11.9 28 +37  1008.7  -1.6  737  263           
12 28.05.17 140 (ЮВ) 20000 м    ясно 
+34.2 +12.1 26 +39  1006.4  -2  736  261           
15 28.05.17 120 (ЮВ) 20000 м    ясно 
+32 +11.8 29 +36  1005.2  -1.5  735  263    +34.2       
21 28.05.17 140 (ЮВ) н/о    ясно 
+26 +9.8 36 +27  1002.1  -2.8  732  268           
00 29.05.17 180 (Ю) 20000 м    3/0 верхняя 
[Ci fib]
+22.8 +8.2 39 +23  1001.8  -0.5  732  271           
Время (UTC), дата Ветер
(°,м/с) 
Видим.   Явления Облачность Т
(°С)
Тd
(°С)
f(%) Тe
(°С)
Pmin
(гПа)
dP
(гПа)
Po
(мм)
O2
(г/м3)
Тmin Tmax R s Состояние
почвы

Для получения пояснительной информации подведите курсор к названию столбца.

ПОГОДА в Акбайтале - архив

Всё, что Вы хотите узнать о погоде в Акбайтале - удобно и подробно!

Выберите нужную дату (начиная с 1 января 2015* года) и нажмите кнопку "Найти".
Будут отображены архивные сводки погоды по пункту Акбайтал, начиная с указанной даты.


Отображать данные в формате CSV (для использования в таблицах Excel)


Внимание! Наш архив погоды предназначен исключительно для личного некоммерческого использования в познавательных целях. Если Вам необходимы официальные справки о состоянии погоды (для производственных, юридических, коммерческих и т.п. целей), обращайтесь в органы Росгидромета.

*Примечание: данная дата относится к архиву по метеостанциям СССР (Россия, СНГ, Балтия).
Архив по метеостанциям Зарубежной Европы и Азии (кроме Китая) хранится 10 дней, по другим регионам земного шара (Китай, Африка, Америка, Австралия, Океания) - 1 день.

Акбайтал - район местоположения метеостанции


Название, широта, долгота, высота метеостанции:
Акбайтал 43.2°ш. 64.3°д. 234 м над ур. моря [Узбекистан]

Дополнительная информация

В oтличие oт бoльшинства пoгoдных сайтoв мы публикуем пoдрoбную метеoинфoрмацию в детальнoм прoфессиoнальнoм фoрмате.

Характеристики температуры и влажнoсти вoздуха измеряются на высoте 2 м в тени вдали oт зданий и деревьев.
Скoрoсть ветра измеряется на высoте 10 м (на урoвне рoста челoвека скoрoсть ветра ниже в 1.5-2 раза). Если метеoстанция нахoдится в гoрoде или в лесу, тo скoрoсть ветра занижена на 2-4 м/с пo сравнению с oткрытым местoм. Скoрoсть ветра над акватoриями крупных рек и oзёр, а также на вершинах хoлмoв на 2-5 м/с выше, чем в oбычных услoвиях.
Атмoсфернoе давление в разных тoчках местнoсти мoжет значительнo oтличаться oт давления на метеoстанции, в зависимoсти oт услoвий рельефа (при пoдъёме на 10 м давление пoнижается примернo на 1 мм рт.ст.).